Regional Weather Roundup
Issued by NWS

Home | Current Version | Previous Version | Text Only | Print | Product List | Glossary Off
Versions: 1 2 3 4 5 6 7 8 9 10 11 12 13 14 15 16 17 18 19 20 21 22 23 24 25 26 27 28 29 30 31 32 33 34 35 36 37 38 39 40 41 42 43 44 45 46 47 48 49 50

000
ASUS43 KTOP 260608
RWRKS

WEATHER ROUNDUP FOR KANSAS
NATIONAL WEATHER SERVICE GOODLAND KS
100 AM CDT MON SEP 26 2016

NOTE:  "FAIR" INDICATES FEW OR NO CLOUDS BELOW 12,000 FEET WITH NO
SIGNIFICANT WEATHER AND/OR OBSTRUCTIONS TO VISIBILITY.

KSZ001>006-013>018-027>032-041>047-260700-
NORTHWEST KANSAS

CITY           SKY/WX    TMP DP  RH WIND       PRES   REMARKS
GOODLAND       CLEAR     44  35  70 W5        30.40R
6HR MIN TEMP:  44; 6HR MAX TEMP:  66;

HAYS           CLEAR     46  32  57 NW7       30.33S
HILL CITY      CLEAR     44  35  70 W3        30.35R
6HR MIN TEMP:  44; 6HR MAX TEMP:  68;

RUSSELL        CLEAR     50  39  66 W3        30.31R
6HR MIN TEMP:  50; 6HR MAX TEMP:  68;

$$

KSZ061>065-074>080-084>089-260700-
SOUTHWEST KANSAS

CITY           SKY/WX    TMP DP  RH WIND       PRES   REMARKS
DODGE CITY     CLEAR     45  36  70 NW7       30.35R
6HR MIN TEMP:  45; 6HR MAX TEMP:  71; 6HR PCP: TRACE;

ELKHART          N/A     54  31  41 NW3         N/A
GARDEN CITY    CLEAR     45  33  63 N8        30.36S
6HR MIN TEMP:  45; 6HR MAX TEMP:  71;

GREAT BEND     CLEAR     50  37  62 NW6       30.32S
LIBERAL        CLEAR     48  30  49 N6        30.37S
PRATT          CLEAR     48  40  75 NW3       30.32R
6HR MIN TEMP:  47; 6HR MAX TEMP:  67;

$$

KSZ066>073-081>083-090>101-260700-
SOUTHEAST KANSAS

CITY           SKY/WX    TMP DP  RH WIND       PRES   REMARKS
CHANUTE        CLOUDY    62  59  90 CALM      30.22R
6HR MIN TEMP:  62; 6HR MAX TEMP:  64;

COFFEYVILLE    CLOUDY    62  60  93 NW3       30.22R
6HR MIN TEMP:  61; 6HR MAX TEMP:  63; 6HR PCP: TRACE;

HUTCHINSON     CLEAR     55  44  66 N7        30.29R
6HR MIN TEMP:  54; 6HR MAX TEMP:  71;

MEDICINE LODGE   N/A     52  47  83 N6          N/A
NEWTON         CLEAR    N/A N/A N/A N8        30.28R
PARSONS        CLOUDY    61  59  93 CALM      30.23S
6HR MIN TEMP:  60; 6HR MAX TEMP:  62; 6HR PCP: TRACE;

WICHITA INTL   PTCLDY    56  50  80 N8        30.26S
6HR MIN TEMP:  56; 6HR MAX TEMP:  68;

WICHITA JABRA  CLEAR     54  47  77 N8        30.26R
6HR MIN TEMP:  54; 6HR MAX TEMP:  65;

WICHITA MCCONL CLEAR     57  46  67 N8        30.26S HAZE
WINFIELD       PTCLDY    58  56  93 N5        30.26R
6HR MIN TEMP:  58; 6HR MAX TEMP:  64;

$$

KSZ007>012-019>026-033>040-048>060-102>105-260700-
NORTHEAST KANSAS

CITY           SKY/WX    TMP DP  RH WIND       PRES   REMARKS
CONCORDIA      CLEAR     50  42  74 NW8       30.29R
6HR MIN TEMP:  49; 6HR MAX TEMP:  69;

EMPORIA        CLEAR     55  51  86 NW5       30.24S
6HR MIN TEMP:  55; 6HR MAX TEMP:  65;

LAWRENCE       CLEAR     53  53 100 NW7       30.22S FOG
6HR MIN TEMP:  53; 6HR MAX TEMP:  64;

MANHATTAN      CLEAR     52  47  83 CALM      30.26R
6HR MIN TEMP:  50; 6HR MAX TEMP:  71;

MARYSVILLE     CLEAR     50  41  71 N8        30.26S
OLATHE IND     PTCLDY    59  57  93 NW7       30.22R
6HR MIN TEMP:  59; 6HR MAX TEMP:  63;

OLATHE EXE     PTCLDY    60  55  83 NW3       30.21S
6HR MIN TEMP:  60; 6HR MAX TEMP:  63;

SALINA         CLEAR     53  45  74 NW7       30.29R
6HR MIN TEMP:  52; 6HR MAX TEMP:  70;

TOPEKA BILLARD CLEAR     56  47  71 NW7       30.23R HAZE
6HR MIN TEMP:  55; 6HR MAX TEMP:  67;

TOPEKA FORBES  CLEAR     55  48  77 NW7       30.23S HAZE
6HR MIN TEMP:  55; 6HR MAX TEMP:  66;

$$




USA.gov is the U.S. government's official web portal to all federal, state and local government web resources and services.